[[{"header":{"parameterUnit":"m.s-1","parameterCategory":1,"la1":30.2991,"la2":30.254,"lo1":-89.0895,"lo2":-89.0444,"dy":0.0017,"dx":0.0017,"nx":28,"ny":28,"refTime":"2023-11-12T09:00:00:Z","depth":0,"parameterNumber":2,"parameterNumberName":"U-component_of_WINDS"},"data":[0,0,0,0,0,0,0,0,0,0,0,0,0,0,0,0,0,0,0,0,0,0,0,0,0,0,0,0,0,0,0,0,0,0,0,0,0,0,0,0,0,0,0,0,0,0,0,0,0,0,0,0,0,0,0,0,0,0,-3.3774,-3.3775,0,-3.3839,-3.384,-3.3841,-3.3773,-3.377,-3.3767,-3.3765,-3.3831,-3.3836,-3.384,0,0,0,0,0,0,0,0,0,0,0,0,0,-3.3591,-3.3595,-3.3774,-3.3775,-3.3776,-3.3839,-3.384,-3.3841,-3.3773,-3.377,-3.3767,-3.3764,-3.383,-3.3835,-3.384,0,0,0,0,0,0,0,0,0,0,0,0,0,-3.3665,-3.3596,-3.3774,-3.375,-3.3748,-3.3839,-3.384,-3.3841,-3.3774,-3.377,-3.3766,-3.3762,-3.3828,-3.3835,-3.3841,-3.3959,0,0,-3.386,-3.3863,0,0,0,0,0,0,0,0,-3.3661,-3.3672,-3.3753,-3.3752,-3.375,-3.3794,-3.38,-3.3881,-3.3775,-3.3764,-3.3765,-3.376,-3.3822,-3.3829,-3.385,-3.3962,-3.3965,-3.3861,-3.3865,-3.3867,-3.3869,0,0,0,0,0,0,0,-3.3656,-3.3669,-3.38,-3.3754,-3.3752,-3.3735,-3.3741,-3.3815,-3.3814,-3.3765,-3.376,-3.3769,-3.3821,-3.3844,-3.3851,-3.3966,-3.3861,-3.3866,-3.387,-3.3873,-3.4179,-3.4183,0,0,0,0,0,0,-3.3653,-3.3665,-3.3798,-3.3802,-3.3695,-3.3742,-3.3749,-3.3784,-3.3813,-3.3814,-3.3772,-3.3765,-3.3835,-3.3843,-3.3853,-3.3994,-3.3867,-3.3873,-3.3877,-3.4174,-3.418,-3.4184,0,0,0,0,0,0,-3.365,-3.3666,-3.3795,-3.3732,-3.3747,-3.3749,-3.3789,-3.3787,-3.381,-3.3819,-3.3818,-3.3795,-3.3832,-3.3844,-3.3933,-3.3995,-3.3876,-3.3882,-3.4169,-3.4176,-3.4182,-3.4276,0,0,0,0,0,0,-3.3645,-3.3665,-3.371,-3.3734,-3.3751,-3.3875,-3.3793,-3.3791,-3.3821,-3.3813,-3.3841,-3.3842,-3.383,-3.3924,-3.3939,-3.4002,-3.3887,-3.4164,-3.4172,-3.418,-3.4268,-3.4285,-3.43,0,0,0,0,0,-3.3639,-3.3734,-3.3713,-3.3729,-3.3807,-3.3879,-3.3889,-3.3873,-3.3826,-3.3872,-3.3877,-3.3841,-3.3985,-3.3934,-3.395,-3.4015,-3.416,-3.417,-3.4179,-3.426,-3.4282,-3.43,0,0,0,0,0,0,-3.3718,-3.3737,-3.3713,-3.3819,-3.3848,-3.3867,-3.3924,-3.3896,-3.3939,-3.3929,-3.3908,-3.3915,-3.401,-3.4021,-3.3963,-3.4131,-3.4065,-3.4079,-3.4121,-3.4141,-3.4157,-3.4153,-3.3892,0,0,0,0,0,-3.3748,-3.3804,-3.3817,-3.391,-3.3925,-3.3922,-3.3953,-3.3938,-3.3967,-3.3979,-3.3991,-3.402,-3.4072,-3.4107,-3.4155,-3.4268,-3.4274,-3.4321,-3.4337,-3.4351,-3.4363,-3.4424,-3.4446,-3.4216,-3.4216,-3.4216,0,0,-3.381,-3.3827,-3.3864,-3.3926,-3.3947,-3.4006,-3.3933,-3.3998,-3.4042,-3.3989,-3.4074,-3.4084,-3.4115,-3.4217,-3.4263,-3.423,-3.4427,-3.4363,-3.4374,-3.4379,-3.4437,-3.4458,-3.4478,-3.4223,-3.4222,-3.4221,0,0,-3.3954,-3.3972,-3.4052,-3.4074,-3.4106,-3.4103,-3.4122,-3.4145,-3.415,-3.4235,-3.4196,-3.4247,-3.4337,-3.4361,-3.4385,-3.4538,-3.4506,-3.4554,-3.464,-3.47,-3.4718,-3.4734,-3.4789,-3.4809,-3.4566,-3.4566,-3.4567,0,-3.4028,-3.4116,-3.4096,-3.4165,-3.4193,-3.4147,-3.4227,-3.4249,-3.4295,-3.4316,-3.4278,-3.439,-3.4408,-3.4515,-3.4552,-3.4573,-3.4594,-3.4552,-3.4717,-3.4733,-3.4747,-3.48,-3.4821,-3.4572,-3.4572,-3.4571,-3.457,0,-3.4205,-3.4266,-3.4326,-3.4372,-3.4407,-3.4481,-3.4473,-3.451,-3.4492,-3.4494,-3.4581,-3.4601,-3.4652,-3.4676,-3.4659,-3.4781,-3.476,-3.472,-3.4653,-3.4775,-3.4824,-3.4844,-3.458,-3.4578,-3.4577,-3.4575,0,0,-3.4402,-3.4436,-3.4459,-3.4479,-3.451,-3.4558,-3.4629,-3.468,-3.4713,-3.4746,-3.4806,-3.4882,-3.4846,-3.4873,-3.4858,-3.491,-3.5031,-3.4864,-3.4864,-3.4895,-3.5168,-3.5199,-3.5223,-3.5009,-3.5013,-3.5016,-3.5165,0,-3.4548,-3.4673,-3.4657,-3.4777,-3.4834,-3.479,-3.4853,-3.4879,-3.4882,-3.493,-3.4933,-3.4988,-3.4934,-3.4951,-3.5,-3.5006,-3.5086,-3.4995,-3.5066,-3.5069,-3.5061,-3.5248,-3.5281,-3.5421,-3.5184,-3.5188,-3.519,0,-3.4736,-3.4776,-3.4901,-3.4924,-3.4947,-3.5004,-3.5049,-3.5095,-3.5124,-3.5122,-3.5153,-3.5128,-3.52,-3.5131,-3.5229,-3.5168,-3.5196,-3.5203,-3.5208,-3.5215,-3.5138,-3.5262,-3.5466,-3.5487,-3.522,-3.5217,-3.5215,0,-3.4869,-3.4954,-3.504,-3.5059,-3.5087,-3.5128,-3.5142,-3.5166,-3.5197,-3.5236,-3.5257,-3.5303,-3.533,-3.5366,-3.5355,-3.5305,-3.5457,-3.5386,-3.5458,-3.5459,-3.5494,-3.5492,-3.5706,-3.5509,-3.5509,-3.5508,-3.5508,0,-3.5034,-3.5113,-3.51,-3.5154,-3.5241,-3.5221,-3.5308,-3.5316,-3.5338,-3.5392,-3.5356,-3.5408,-3.5389,-3.544,-3.5431,-3.5515,-3.5527,-3.5528,-3.5525,-3.5532,-3.5532,-3.5551,-3.5542,-3.5514,-3.5513,-3.5512,-3.5511,0,-3.5199,-3.5193,-3.5285,-3.5304,-3.531,-3.5374,-3.539,-3.544,-3.5439,-3.5508,-3.5523,-3.5523,-3.558,-3.5572,-3.5636,-3.563,-3.5735,-3.5719,-3.5726,-3.5723,-3.5796,-3.579,-3.6031,-3.6062,-3.5844,-3.5846,-3.5847,0,-3.5306,-3.5366,-3.5391,-3.5425,-3.5442,-3.5496,-3.5528,-3.551,-3.5545,-3.5582,-3.5628,-3.5682,-3.5724,-3.5818,-3.5823,-3.5872,-3.5858,-3.5939,-3.5865,-3.587,-3.5861,-3.5858,-3.5864,-3.5954,-3.5957,-3.5959,-3.5961,0,-3.5497,-3.5491,-3.5538,-3.5585,-3.5624,-3.566,-3.5692,-3.5721,-3.5707,-3.5747,-3.5806,-3.5839,-3.5904,-3.5958,-3.6004,-3.6017,-3.5987,-3.5983,-3.6003,-3.6012,-3.6014,-3.6015,-3.5767,-3.5979,-3.5977,-3.5975,-3.5974,-3.5974,-3.5637,-3.5688,-3.5714,-3.5768,-3.579,-3.5821,-3.5869,-3.5874,-3.5923,-3.5975,-3.5961,-3.6027,-3.6053,-3.6111,-3.613,-3.6181,-3.6152,-3.618,-3.6187,-3.6194,-3.6204,-3.6004,-3.6189,-3.6189,-3.6188,-3.6188,-3.6188,0,-3.5827,-3.5841,-3.5891,-3.5937,-3.598,-3.5947,-3.598,-3.6018,-3.6077,-3.6104,-3.6146,-3.6213,-3.6266,-3.6275,-3.6325,-3.6364,-3.6352,-3.6378,-3.6376,-3.638,-3.6227,-3.6206,-3.6387,-3.6387,-3.6387,-3.6387,-3.6387,-3.6387,-3.5931,-3.6016,-3.6014,-3.6109,-3.6123,-3.6188,-3.621,-3.6238,-3.626,-3.6336,-3.638,-3.6385,-3.6405,-3.6456,-3.6502,-3.6503,-3.6524,-3.6556,-3.6552,-3.641,-3.639,-3.6371,-3.6351,-3.656,-3.6561,-3.6701,-3.6702,-3.6703]},{"header":{"parameterUnit":"m.s-1","parameterCategory":1,"la1":30.2991,"la2":30.254,"lo1":-89.0895,"lo2":-89.0444,"dy":0.0017,"dx":0.0017,"nx":28,"ny":28,"refTime":"2023-11-12T09:00:00:Z","depth":0,"parameterNumber":3,"parameterNumberName":"V-component_of_WINDS"},"data":[0,0,0,0,0,0,0,0,0,0,0,0,0,0,0,0,0,0,0,0,0,0,0,0,0,0,0,0,0,0,0,0,0,0,0,0,0,0,0,0,0,0,0,0,0,0,0,0,0,0,0,0,0,0,0,0,0,0,-4.7883,-4.7883,0,-4.7908,-4.7909,-4.7909,-4.7846,-4.7844,-4.7842,-4.7841,-4.7864,-4.7867,-4.7869,0,0,0,0,0,0,0,0,0,0,0,0,0,-4.7777,-4.778,-4.7883,-4.7883,-4.7884,-4.7908,-4.7909,-4.7909,-4.7847,-4.7844,-4.7842,-4.784,-4.7863,-4.7866,-4.7869,0,0,0,0,0,0,0,0,0,0,0,0,0,-4.7815,-4.7781,-4.7883,-4.7856,-4.7853,-4.7908,-4.7909,-4.7909,-4.7847,-4.7844,-4.7841,-4.7839,-4.7862,-4.7866,-4.787,-4.7951,0,0,-4.7881,-4.7882,0,0,0,0,0,0,0,0,-4.7813,-4.7819,-4.7859,-4.7858,-4.7855,-4.7871,-4.788,-4.7923,-4.7848,-4.785,-4.7841,-4.7837,-4.7869,-4.7872,-4.7883,-4.7952,-4.7953,-4.7881,-4.7883,-4.7885,-4.7886,0,0,0,0,0,0,0,-4.7811,-4.7818,-4.7893,-4.786,-4.7857,-4.7841,-4.7843,-4.7888,-4.7875,-4.7849,-4.7845,-4.7849,-4.7867,-4.7879,-4.7883,-4.7954,-4.7881,-4.7884,-4.7887,-4.7888,-4.809,-4.8093,0,0,0,0,0,0,-4.7812,-4.7816,-4.7892,-4.7894,-4.7827,-4.7845,-4.7848,-4.7869,-4.7875,-4.7873,-4.7851,-4.7846,-4.7875,-4.7879,-4.7883,-4.7979,-4.7885,-4.7888,-4.7891,-4.8087,-4.8091,-4.8094,0,0,0,0,0,0,-4.781,-4.7819,-4.7891,-4.7854,-4.7861,-4.785,-4.7875,-4.7871,-4.7883,-4.7876,-4.7873,-4.7866,-4.7872,-4.7878,-4.7935,-4.7978,-4.789,-4.7893,-4.8083,-4.8088,-4.8092,-4.817,0,0,0,0,0,0,-4.7807,-4.7819,-4.7851,-4.7855,-4.7864,-4.7943,-4.7877,-4.7874,-4.789,-4.7883,-4.789,-4.7888,-4.7871,-4.793,-4.7938,-4.7982,-4.7896,-4.8079,-4.8085,-4.8091,-4.8163,-4.8177,-4.8188,0,0,0,0,0,-4.7804,-4.7871,-4.7853,-4.7862,-4.7903,-4.7946,-4.7951,-4.793,-4.7894,-4.7925,-4.792,-4.7888,-4.7972,-4.7936,-4.7945,-4.7991,-4.8076,-4.8083,-4.809,-4.8158,-4.8174,-4.8188,0,0,0,0,0,0,-4.7872,-4.7871,-4.7851,-4.7922,-4.7934,-4.7935,-4.7974,-4.7948,-4.7971,-4.7963,-4.7936,-4.7938,-4.7999,-4.8,-4.796,-4.8069,-4.8018,-4.8027,-4.8066,-4.8082,-4.8094,-4.8092,-4.7899,0,0,0,0,0,-4.7895,-4.7931,-4.7928,-4.7991,-4.7998,-4.7985,-4.8003,-4.7986,-4.7998,-4.8002,-4.8001,-4.8013,-4.8042,-4.8062,-4.8088,-4.8163,-4.8163,-4.8199,-4.8212,-4.8222,-4.823,-4.8269,-4.8284,-4.8117,-4.8117,-4.8117,0,0,-4.7944,-4.7948,-4.7972,-4.8005,-4.8013,-4.8049,-4.799,-4.8031,-4.8057,-4.8008,-4.8061,-4.8061,-4.8072,-4.8138,-4.8167,-4.8141,-4.8276,-4.8231,-4.8239,-4.8242,-4.8278,-4.8293,-4.8307,-4.8122,-4.8121,-4.812,0,0,-4.8051,-4.8058,-4.8111,-4.812,-4.8133,-4.8123,-4.8136,-4.8141,-4.8139,-4.8192,-4.8156,-4.8186,-4.8237,-4.8246,-4.8257,-4.8367,-4.8338,-4.8377,-4.8441,-4.8479,-4.8492,-4.8504,-4.8542,-4.8556,-4.8385,-4.8385,-4.8385,0,-4.811,-4.8164,-4.8141,-4.8185,-4.82,-4.8158,-4.821,-4.822,-4.824,-4.8251,-4.8222,-4.8284,-4.8289,-4.8356,-4.8383,-4.8394,-4.8406,-4.8376,-4.8492,-4.8504,-4.8514,-4.855,-4.8565,-4.839,-4.8389,-4.8389,-4.8388,0,-4.8235,-4.8273,-4.8314,-4.8335,-4.8355,-4.8402,-4.8386,-4.8408,-4.839,-4.8383,-4.8437,-4.8441,-4.8467,-4.8482,-4.8464,-4.8546,-4.853,-4.8497,-4.8445,-4.8535,-4.8568,-4.8582,-4.8396,-4.8395,-4.8393,-4.8392,0,0,-4.8386,-4.8394,-4.8409,-4.8418,-4.8428,-4.8457,-4.8502,-4.8528,-4.8547,-4.8563,-4.8599,-4.8643,-4.8613,-4.8626,-4.8608,-4.8642,-4.8727,-4.8605,-4.8604,-4.8627,-4.8817,-4.8841,-4.8858,-4.8708,-4.8711,-4.8713,-4.8816,0,-4.8491,-4.857,-4.855,-4.8628,-4.8662,-4.8622,-4.8661,-4.8671,-4.8666,-4.8694,-4.8687,-4.8719,-4.8677,-4.8684,-4.8716,-4.871,-4.8765,-4.8703,-4.8741,-4.8742,-4.8739,-4.8875,-4.8901,-4.8998,-4.8829,-4.8831,-4.8833,0,-4.8624,-4.8645,-4.8726,-4.873,-4.8744,-4.878,-4.8801,-4.8829,-4.8839,-4.8832,-4.8847,-4.8822,-4.8866,-4.8814,-4.8873,-4.8831,-4.8845,-4.8845,-4.8848,-4.885,-4.8793,-4.888,-4.9029,-4.9043,-4.8853,-4.8852,-4.885,0,-4.8725,-4.8774,-4.8828,-4.8837,-4.8843,-4.8869,-4.8873,-4.888,-4.8897,-4.8915,-4.8926,-4.8949,-4.8962,-4.898,-4.8963,-4.8927,-4.9024,-4.8971,-4.9019,-4.902,-4.9041,-4.904,-4.9193,-4.9052,-4.9052,-4.9051,-4.9051,0,-4.8844,-4.8895,-4.8873,-4.8907,-4.8962,-4.8939,-4.8995,-4.8993,-4.9,-4.9032,-4.8999,-4.9029,-4.9004,-4.9032,-4.9018,-4.9068,-4.9075,-4.907,-4.9066,-4.9073,-4.9073,-4.9081,-4.9074,-4.9055,-4.9054,-4.9054,-4.9053,0,-4.8966,-4.8954,-4.9011,-4.9012,-4.9013,-4.9054,-4.9055,-4.9085,-4.9077,-4.9118,-4.9126,-4.9114,-4.9145,-4.9129,-4.9161,-4.9152,-4.9217,-4.9204,-4.9214,-4.921,-4.9259,-4.9254,-4.9422,-4.9443,-4.9289,-4.929,-4.9292,0,-4.9043,-4.9081,-4.9087,-4.9106,-4.9112,-4.9143,-4.916,-4.9138,-4.9157,-4.9171,-4.92,-4.9228,-4.9249,-4.93,-4.9294,-4.9318,-4.9305,-4.9362,-4.9308,-4.9314,-4.9304,-4.9302,-4.9305,-4.9372,-4.9374,-4.9376,-4.9377,0,-4.918,-4.9172,-4.9198,-4.9222,-4.9243,-4.926,-4.9275,-4.9292,-4.927,-4.9293,-4.9324,-4.9341,-4.9374,-4.9402,-4.9423,-4.9425,-4.9397,-4.9394,-4.9406,-4.9414,-4.9417,-4.9415,-4.9242,-4.939,-4.9389,-4.9388,-4.9387,-4.9387,-4.9281,-4.9313,-4.9321,-4.9351,-4.936,-4.9374,-4.9402,-4.9398,-4.9424,-4.945,-4.9435,-4.9472,-4.948,-4.9505,-4.9511,-4.9539,-4.9516,-4.9534,-4.9538,-4.9543,-4.9549,-4.9414,-4.9542,-4.9542,-4.9542,-4.9541,-4.9541,0,-4.9415,-4.9419,-4.9446,-4.9468,-4.9491,-4.9464,-4.9478,-4.9499,-4.9532,-4.9542,-4.9564,-4.9599,-4.9626,-4.9622,-4.9646,-4.9669,-4.9657,-4.9676,-4.9673,-4.9674,-4.9569,-4.9555,-4.9685,-4.9685,-4.9685,-4.9685,-4.9685,-4.9685,-4.9488,-4.954,-4.9533,-4.9588,-4.9591,-4.9627,-4.9638,-4.965,-4.9658,-4.9699,-4.9722,-4.9719,-4.9723,-4.9747,-4.977,-4.9768,-4.9778,-4.9802,-4.9795,-4.9696,-4.9682,-4.9668,-4.9655,-4.9804,-4.9805,-4.9898,-4.9899,-4.99]}]]